contact:dominique.lefevre@mio.osupytheas.fr, maurice.libes@osupytheas.fr, didier.mallarino@osupytheas.fr
Project:EMSO http://www.emso-fr.org/EMSO-France
Depth: 2436.0 m
Title:EMSO Ligure Ouest : Data MII capteur AQUADOPP
Date,Latitude,Longitude,X_East,Y_North,Z_Up,Amplitude_X,Amplitude_Y,Amplitude_Z,Batterie,SoundSpeed,Heading,Pitch,Roll,Pressure,TIS,Speed,Direction
, degrees North, degrees East, m.s-1, m.s-1,m.s-1, 1, 1, 1, Volt, m.s-1, degree, degree, degree, dbar, degree_C, m.s-1, degree
2021-04-28T00:04:03,42.805,6.029,0.045,-0.032,0.015,103.0,105.0,102.0,13.4,1505.2,326.4,-0.8,1.8,2468.968,13.28,0.055,125.4
2021-04-28T00:07:03,42.805,6.029,0.046,-0.005,0.011,103.0,105.0,102.0,13.4,1505.2,325.1,-0.8,1.8,2468.909,13.28,0.046,96.2
2021-04-28T00:10:03,42.805,6.029,0.035,-0.014,0.026,103.0,104.0,102.0,13.4,1505.2,327.6,-0.7,1.8,2468.906,13.28,0.037,111.8
2021-04-28T00:13:03,42.805,6.029,0.021,0.008,0.011,103.0,106.0,101.0,13.3,1505.2,325.3,-0.7,1.8,2468.913,13.28,0.022,69.1
2021-04-28T00:16:03,42.805,6.029,0.039,-0.022,0.03,104.0,105.0,102.0,13.3,1505.2,327.0,-0.7,1.8,2468.886,13.28,0.044,119.4
2021-04-28T00:19:03,42.805,6.029,0.03,-0.002,0.032,103.0,105.0,102.0,13.4,1505.2,326.0,-0.8,1.9,2468.848,13.28,0.03,93.8
2021-04-28T00:22:03,42.805,6.029,0.033,-0.02,0.015,103.0,106.0,102.0,13.4,1505.2,325.8,-0.7,1.8,2468.918,13.28,0.038,121.2
2021-04-28T00:25:03,42.805,6.029,0.043,-0.014,0.036,102.0,105.0,102.0,13.4,1505.2,324.8,-0.8,1.8,2468.809,13.28,0.045,108.0
2021-04-28T00:28:03,42.805,6.029,0.014,-0.008,-0.014,103.0,105.0,102.0,13.4,1505.2,325.2,-0.8,1.8,2468.888,13.28,0.016,119.7
2021-04-28T00:31:03,42.805,6.029,0.052,-0.008,0.0,103.0,106.0,102.0,13.4,1505.2,326.1,-0.8,1.8,2468.917,13.28,0.052,98.7
2021-04-28T00:34:03,42.805,6.029,0.011,-0.021,-0.027,103.0,106.0,101.0,13.4,1505.2,326.0,-0.8,1.8,2468.86,13.28,0.023,152.4
2021-04-28T00:37:03,42.805,6.029,0.025,-0.011,0.005,103.0,105.0,102.0,13.4,1505.2,328.3,-0.7,1.8,2468.859,13.28,0.027,113.7
2021-04-28T00:40:03,42.805,6.029,0.07,-0.01,0.019,103.0,104.0,102.0,13.4,1505.2,328.7,-0.8,1.8,2468.861,13.28,0.07,98.1
2021-04-28T00:43:03,42.805,6.029,0.023,-0.026,0.005,103.0,106.0,101.0,13.4,1505.2,329.2,-0.7,1.8,2468.871,13.28,0.034,138.5
2021-04-28T00:46:03,42.805,6.029,0.042,-0.008,0.03,102.0,106.0,102.0,13.3,1505.2,327.1,-0.8,1.8,2468.845,13.28,0.042,100.8
2021-04-28T00:49:03,42.805,6.029,0.054,-0.015,0.041,104.0,105.0,102.0,13.4,1505.2,323.9,-0.8,1.9,2468.854,13.28,0.056,105.5
2021-04-28T00:52:03,42.805,6.029,0.038,-0.033,0.029,103.0,104.0,101.0,13.4,1505.2,327.6,-0.8,1.8,2468.835,13.28,0.05,131.0
2021-04-28T00:55:03,42.805,6.029,0.019,-0.011,-0.01,103.0,105.0,101.0,13.4,1505.2,324.3,-0.8,1.8,2468.861,13.28,0.021,120.1
2021-04-28T00:58:03,42.805,6.029,0.061,-0.011,0.024,102.0,105.0,101.0,13.3,1505.2,325.2,-0.7,1.8,2468.791,13.28,0.061,100.2
2021-04-28T01:04:03,42.805,6.029,0.03,-0.016,0.018,103.0,105.0,102.0,13.3,1505.2,324.4,-0.7,1.8,2468.825,13.28,0.034,118.1
2021-04-28T01:07:03,42.805,6.029,0.048,-0.03,0.02,103.0,105.0,101.0,13.4,1505.2,327.4,-0.7,1.8,2468.815,13.28,0.056,122.0
2021-04-28T01:10:03,42.805,6.029,0.024,-0.012,-0.001,103.0,104.0,101.0,13.4,1505.2,327.4,-0.7,1.8,2468.79,13.28,0.026,116.6
2021-04-28T01:13:03,42.805,6.029,0.045,-0.026,0.03,102.0,106.0,102.0,13.4,1505.2,326.1,-0.8,1.8,2468.78,13.28,0.051,120.0
2021-04-28T01:16:03,42.805,6.029,0.036,-0.008,0.012,103.0,104.0,102.0,13.4,1505.2,326.8,-0.7,1.8,2468.744,13.28,0.036,102.5
2021-04-28T01:19:03,42.805,6.029,0.039,-0.016,-0.005,103.0,103.0,102.0,13.4,1505.2,325.4,-0.8,1.8,2468.715,13.28,0.042,112.3
2021-04-28T01:22:03,42.805,6.029,0.047,-0.013,-0.005,102.0,105.0,102.0,13.3,1505.2,324.9,-0.7,1.8,2468.755,13.28,0.048,105.5
2021-04-28T01:25:03,42.805,6.029,0.027,-0.041,-0.034,103.0,104.0,102.0,13.4,1505.2,325.6,-0.8,1.9,2468.767,13.28,0.049,146.6
2021-04-28T01:28:03,42.805,6.029,0.049,-0.017,0.027,102.0,105.0,102.0,13.4,1505.2,326.5,-0.8,1.8,2468.703,13.28,0.051,109.1
2021-04-28T01:31:03,42.805,6.029,0.049,-0.02,0.047,102.0,106.0,102.0,13.4,1505.2,326.5,-0.7,1.8,2468.7,13.28,0.052,112.2
2021-04-28T01:34:03,42.805,6.029,0.056,-0.03,0.028,104.0,105.0,102.0,13.4,1505.2,325.9,-0.7,1.8,2468.66,13.28,0.063,118.2
2021-04-28T01:37:03,42.805,6.029,0.037,-0.014,0.033,104.0,105.0,102.0,13.3,1505.2,328.9,-0.7,1.8,2468.666,13.28,0.039,110.7
2021-04-28T01:40:03,42.805,6.029,0.035,-0.013,0.006,104.0,104.0,101.0,13.3,1505.2,327.4,-0.8,1.8,2468.665,13.28,0.037,110.4
2021-04-28T01:43:03,42.805,6.029,0.037,-0.007,-0.004,103.0,105.0,101.0,13.3,1505.2,327.3,-0.8,1.8,2468.664,13.28,0.037,100.7
2021-04-28T01:46:03,42.805,6.029,0.037,-0.007,0.009,103.0,104.0,102.0,13.3,1505.2,324.5,-0.8,1.8,2468.725,13.28,0.037,100.7
2021-04-28T01:49:03,42.805,6.029,0.028,-0.014,-0.015,103.0,104.0,102.0,13.4,1505.2,326.7,-0.8,1.8,2468.669,13.28,0.031,116.6
2021-04-28T01:52:03,42.805,6.029,0.049,-0.001,0.024,102.0,107.0,101.0,13.4,1505.2,323.8,-0.7,1.8,2468.665,13.28,0.049,91.2
2021-04-28T01:55:03,42.805,6.029,0.043,0.0,0.051,104.0,104.0,102.0,13.4,1505.2,326.7,-0.8,1.8,2468.6,13.28,0.043,90.0
2021-04-28T01:58:03,42.805,6.029,0.038,-0.007,0.025,103.0,104.0,101.0,13.4,1505.2,327.4,-0.8,1.8,2468.621,13.28,0.038,100.4
2021-04-28T02:04:03,42.805,6.029,0.047,-0.022,0.034,103.0,104.0,102.0,13.4,1505.2,327.2,-0.8,1.8,2468.597,13.28,0.051,115.1
2021-04-28T02:07:03,42.805,6.029,0.055,-0.013,0.025,104.0,106.0,102.0,13.4,1505.2,329.4,-0.7,1.8,2468.576,13.28,0.056,103.3
2021-04-28T02:10:03,42.805,6.029,0.04,-0.017,0.003,104.0,106.0,102.0,13.3,1505.2,328.2,-0.7,1.8,2468.612,13.28,0.043,113.0
2021-04-28T02:13:03,42.805,6.029,0.019,-0.026,0.0,103.0,106.0,102.0,13.4,1505.2,326.6,-0.7,1.9,2468.6,13.28,0.032,143.8
2021-04-28T02:16:03,42.805,6.029,0.059,0.0,0.044,103.0,106.0,102.0,13.3,1505.2,325.7,-0.7,1.8,2468.6,13.28,0.058,90.0
2021-04-28T02:19:03,42.805,6.029,0.034,-0.016,0.022,103.0,106.0,102.0,13.3,1505.2,329.4,-0.8,1.9,2468.608,13.28,0.037,115.2
2021-04-28T02:22:03,42.805,6.029,0.029,-0.007,0.003,103.0,107.0,101.0,13.4,1505.2,325.3,-0.7,1.8,2468.57,13.28,0.029,103.6
2021-04-28T02:25:03,42.805,6.029,0.042,-0.005,0.046,103.0,105.0,103.0,13.4,1505.2,325.6,-0.8,1.8,2468.536,13.28,0.042,96.8
2021-04-28T02:28:03,42.805,6.029,0.043,-0.01,0.019,103.0,106.0,102.0,13.4,1505.2,325.0,-0.7,1.8,2468.568,13.28,0.044,103.1
2021-04-28T02:31:03,42.805,6.029,0.034,-0.02,-0.004,103.0,106.0,103.0,13.4,1505.2,327.8,-0.8,1.8,2468.57,13.28,0.039,120.5
2021-04-28T02:34:03,42.805,6.029,0.015,-0.019,-0.019,105.0,106.0,101.0,13.4,1505.2,325.7,-0.7,1.9,2468.6,13.28,0.024,141.7
2021-04-28T02:37:03,42.805,6.029,0.047,-0.023,0.014,103.0,106.0,102.0,13.4,1505.2,328.1,-0.7,1.8,2468.55,13.28,0.052,116.1
2021-04-28T02:40:03,42.805,6.029,0.045,-0.017,0.044,103.0,107.0,101.0,13.3,1505.2,327.6,-0.8,1.8,2468.581,13.28,0.048,110.7
2021-04-28T02:43:03,42.805,6.029,0.037,-0.024,0.029,103.0,106.0,102.0,13.4,1505.2,327.5,-0.8,1.8,2468.54,13.28,0.044,123.0
2021-04-28T02:46:03,42.805,6.029,0.047,-0.037,0.008,104.0,106.0,101.0,13.3,1505.2,324.1,-0.8,1.8,2468.56,13.28,0.059,128.2
2021-04-28T02:49:03,42.805,6.029,0.055,-0.046,0.013,103.0,106.0,101.0,13.3,1505.2,326.9,-0.7,1.8,2468.535,13.28,0.071,129.9
2021-04-28T02:52:03,42.805,6.029,0.047,-0.005,-0.01,104.0,105.0,102.0,13.4,1505.2,328.7,-0.7,1.8,2468.519,13.28,0.047,96.1
2021-04-28T02:55:03,42.805,6.029,0.031,-0.033,0.029,103.0,106.0,103.0,13.3,1505.2,326.3,-0.8,1.8,2468.57,13.28,0.045,136.8
2021-04-28T02:58:03,42.805,6.029,0.05,-0.017,-0.018,102.0,104.0,102.0,13.4,1505.2,328.3,-0.8,1.8,2468.55,13.28,0.052,108.8
2021-04-28T03:04:03,42.805,6.029,0.053,0.001,0.038,103.0,106.0,102.0,13.4,1505.2,327.5,-0.8,1.8,2468.562,13.28,0.053,88.9
2021-04-28T03:07:03,42.805,6.029,0.028,-0.024,-0.003,103.0,105.0,102.0,13.4,1505.2,329.1,-0.8,1.8,2468.496,13.28,0.036,130.6
2021-04-28T03:10:03,42.805,6.029,0.068,-0.03,0.028,103.0,105.0,102.0,13.4,1505.2,324.0,-0.7,1.8,2468.473,13.28,0.074,113.8
2021-04-28T03:13:03,42.805,6.029,0.054,-0.029,0.019,107.0,106.0,102.0,13.4,1505.2,327.6,-0.7,1.9,2468.543,13.28,0.061,118.2
2021-04-28T03:16:03,42.805,6.029,0.051,0.002,0.023,102.0,106.0,102.0,13.4,1505.2,325.5,-0.8,1.9,2468.551,13.28,0.051,87.8
2021-04-28T03:19:03,42.805,6.029,0.021,-0.028,0.011,103.0,105.0,102.0,13.4,1505.2,325.1,-0.8,1.8,2468.507,13.28,0.035,143.1
2021-04-28T03:22:03,42.805,6.029,0.028,-0.007,0.006,103.0,105.0,102.0,13.4,1505.2,328.4,-0.8,1.8,2468.513,13.28,0.028,104.0
2021-04-28T03:25:03,42.805,6.029,0.055,-0.03,0.03,103.0,107.0,102.0,13.4,1505.2,325.4,-0.8,1.8,2468.536,13.28,0.062,118.6
2021-04-28T03:28:03,42.805,6.029,0.048,-0.004,0.031,102.0,106.0,101.0,13.4,1505.2,325.8,-0.7,1.8,2468.506,13.28,0.048,94.8
2021-04-28T03:31:03,42.805,6.029,0.074,-0.02,0.062,104.0,105.0,102.0,13.4,1505.2,327.8,-0.8,1.8,2468.529,13.28,0.076,105.1
2021-04-28T03:34:03,42.805,6.029,0.044,-0.019,0.007,103.0,105.0,102.0,13.4,1505.2,325.5,-0.8,1.8,2468.48,13.28,0.047,113.4
2021-04-28T03:37:03,42.805,6.029,0.021,-0.018,0.007,103.0,105.0,102.0,13.4,1505.2,326.0,-0.7,1.8,2468.5,13.28,0.027,130.6
2021-04-28T03:40:03,42.805,6.029,0.05,-0.006,0.014,103.0,105.0,102.0,13.4,1505.2,327.7,-0.7,1.8,2468.547,13.28,0.05,96.8
2021-04-28T03:43:03,42.805,6.029,0.055,-0.021,0.017,103.0,106.0,101.0,13.4,1505.2,327.1,-0.7,1.8,2468.558,13.28,0.058,110.9
2021-04-28T03:46:03,42.805,6.029,0.064,-0.018,0.019,103.0,104.0,102.0,13.4,1505.2,325.4,-0.7,1.8,2468.52,13.28,0.066,105.7
2021-04-28T03:49:03,42.805,6.029,0.042,-0.009,0.029,103.0,106.0,102.0,13.3,1505.2,325.6,-0.7,1.9,2468.549,13.28,0.042,102.1
2021-04-28T03:52:03,42.805,6.029,0.052,-0.026,0.041,103.0,105.0,102.0,13.4,1505.2,324.9,-0.7,1.8,2468.525,13.28,0.058,116.6
2021-04-28T03:55:03,42.805,6.029,0.022,-0.015,-0.003,103.0,105.0,101.0,13.4,1505.2,327.4,-0.8,1.9,2468.546,13.28,0.026,124.3
2021-04-28T03:58:03,42.805,6.029,0.021,-0.027,0.006,104.0,106.0,102.0,13.3,1505.2,326.1,-0.7,1.8,2468.553,13.28,0.034,142.1
2021-04-28T04:04:03,42.805,6.029,0.05,0.0,0.063,103.0,107.0,102.0,13.4,1505.2,328.2,-0.8,1.8,2468.546,13.28,0.05,90.0
2021-04-28T04:07:03,42.805,6.029,0.052,-0.015,0.008,103.0,106.0,101.0,13.3,1505.2,325.4,-0.8,1.8,2468.596,13.28,0.054,106.1
2021-04-28T04:10:03,42.805,6.029,0.036,-0.015,0.03,104.0,106.0,101.0,13.4,1505.2,326.8,-0.8,1.9,2468.565,13.28,0.039,112.6
2021-04-28T04:13:03,42.805,6.029,0.023,-0.013,0.022,103.0,106.0,101.0,13.4,1505.2,325.5,-0.8,1.8,2468.551,13.28,0.026,119.5
2021-04-28T04:16:03,42.805,6.029,0.018,-0.028,0.013,104.0,105.0,102.0,13.4,1505.2,328.7,-0.7,1.9,2468.545,13.28,0.033,147.3
2021-04-28T04:19:03,42.805,6.029,0.026,-0.032,-0.003,103.0,104.0,102.0,13.3,1505.2,328.4,-0.8,1.8,2468.536,13.28,0.041,140.9
2021-04-28T04:22:03,42.805,6.029,0.055,-0.026,0.052,103.0,106.0,102.0,13.4,1505.2,327.1,-0.8,1.9,2468.548,13.28,0.06,115.3
2021-04-28T04:25:03,42.805,6.029,0.036,-0.012,0.019,102.0,105.0,102.0,13.4,1505.2,324.7,-0.7,1.8,2468.578,13.28,0.037,108.4
2021-04-28T04:28:03,42.805,6.029,0.046,-0.011,0.007,103.0,105.0,102.0,13.4,1505.2,325.5,-0.7,1.8,2468.589,13.28,0.047,103.4
2021-04-28T04:31:03,42.805,6.029,0.052,-0.024,0.046,103.0,106.0,102.0,13.4,1505.2,328.9,-0.7,1.8,2468.594,13.28,0.057,114.8
2021-04-28T04:34:03,42.805,6.029,0.037,-0.011,0.022,103.0,105.0,101.0,13.3,1505.2,326.3,-0.8,1.8,2468.567,13.28,0.038,106.6
2021-04-28T04:37:03,42.805,6.029,0.041,-0.022,0.019,103.0,106.0,102.0,13.3,1505.2,327.2,-0.8,1.8,2468.592,13.28,0.046,118.2
2021-04-28T04:40:03,42.805,6.029,0.023,-0.006,0.04,103.0,106.0,101.0,13.4,1505.2,326.8,-0.8,1.8,2468.575,13.28,0.023,104.6
2021-04-28T04:43:03,42.805,6.029,0.075,-0.017,0.018,103.0,106.0,101.0,13.4,1505.2,326.5,-0.8,1.8,2468.619,13.28,0.076,102.8
2021-04-28T04:46:03,42.805,6.029,0.05,-0.039,0.008,103.0,105.0,101.0,13.3,1505.2,326.3,-0.7,1.8,2468.578,13.28,0.063,128.0
2021-04-28T04:49:03,42.805,6.029,0.05,-0.011,0.015,103.0,107.0,102.0,13.4,1505.2,325.3,-0.8,1.8,2468.631,13.28,0.051,102.4
2021-04-28T04:52:03,42.805,6.029,0.046,-0.031,0.056,104.0,105.0,102.0,13.3,1505.2,327.8,-0.7,1.8,2468.653,13.28,0.055,124.0
2021-04-28T04:55:03,42.805,6.029,0.049,-0.019,0.033,103.0,104.0,101.0,13.3,1505.2,325.6,-0.8,1.8,2468.601,13.28,0.052,111.2
2021-04-28T04:58:03,42.805,6.029,0.029,-0.005,0.041,103.0,105.0,100.0,13.4,1505.2,325.3,-0.8,1.8,2468.636,13.28,0.029,99.8
2021-04-28T05:04:03,42.805,6.029,0.069,-0.013,0.048,104.0,108.0,101.0,13.3,1505.2,325.3,-0.8,1.8,2468.659,13.28,0.07,100.7
2021-04-28T05:07:03,42.805,6.029,0.031,-0.025,0.044,103.0,105.0,102.0,13.4,1505.2,325.3,-0.8,1.8,2468.628,13.28,0.039,128.9
2021-04-28T05:10:03,42.805,6.029,0.056,-0.023,0.022,103.0,106.0,101.0,13.4,1505.2,328.8,-0.8,1.8,2468.672,13.28,0.06,112.3
2021-04-28T05:13:03,42.805,6.029,0.047,-0.005,0.026,103.0,107.0,101.0,13.4,1505.2,325.4,-0.8,1.8,2468.658,13.28,0.047,96.1
2021-04-28T05:16:03,42.805,6.029,0.057,-0.031,0.02,104.0,106.0,102.0,13.4,1505.2,327.1,-0.8,1.8,2468.657,13.28,0.064,118.5
2021-04-28T05:19:03,42.805,6.029,0.059,-0.019,0.007,103.0,105.0,101.0,13.4,1505.2,328.1,-0.8,1.8,2468.629,13.28,0.061,107.8
2021-04-28T05:22:03,42.805,6.029,0.045,-0.029,0.021,103.0,106.0,102.0,13.4,1505.2,328.2,-0.7,1.8,2468.643,13.28,0.053,122.8
2021-04-28T05:25:03,42.805,6.029,0.044,-0.011,0.034,104.0,108.0,101.0,13.3,1505.2,324.6,-0.8,1.8,2468.637,13.28,0.045,104.0
2021-04-28T05:28:03,42.805,6.029,0.036,-0.02,0.058,103.0,106.0,102.0,13.3,1505.2,324.2,-0.8,1.8,2468.676,13.28,0.041,119.1
2021-04-28T05:31:03,42.805,6.029,0.049,-0.029,0.001,104.0,105.0,103.0,13.4,1505.2,325.2,-0.7,1.8,2468.647,13.28,0.056,120.6
2021-04-28T05:34:03,42.805,6.029,0.065,-0.024,0.059,103.0,106.0,102.0,13.4,1505.2,326.2,-0.8,1.8,2468.647,13.28,0.069,110.3
2021-04-28T05:37:03,42.805,6.029,0.053,-0.021,0.008,103.0,107.0,101.0,13.4,1505.2,329.0,-0.8,1.8,2468.676,13.28,0.057,111.6
2021-04-28T05:40:03,42.805,6.029,0.055,0.005,0.033,103.0,105.0,102.0,13.3,1505.2,324.6,-0.8,1.8,2468.675,13.28,0.055,84.8
2021-04-28T05:43:03,42.805,6.029,0.056,-0.012,0.039,104.0,106.0,101.0,13.3,1505.2,324.9,-0.8,1.8,2468.704,13.28,0.057,102.1
2021-04-28T05:46:03,42.805,6.029,0.052,-0.023,0.036,104.0,105.0,101.0,13.4,1505.2,324.4,-0.7,1.8,2468.712,13.28,0.056,113.9
2021-04-28T05:49:03,42.805,6.029,0.045,-0.025,0.026,104.0,105.0,102.0,13.3,1505.2,326.2,-0.7,1.8,2468.696,13.28,0.051,119.1
2021-04-28T05:52:03,42.805,6.029,0.038,-0.032,0.033,104.0,107.0,101.0,13.3,1505.2,328.5,-0.8,1.8,2468.712,13.28,0.049,130.1
2021-04-28T05:55:03,42.805,6.029,0.06,-0.026,0.026,104.0,104.0,101.0,13.3,1505.2,326.0,-0.7,1.8,2468.683,13.28,0.065,113.4
2021-04-28T05:58:03,42.805,6.029,0.057,-0.022,0.025,103.0,107.0,101.0,13.4,1505.2,326.4,-0.7,1.8,2468.717,13.28,0.061,111.1
2021-04-28T06:04:03,42.805,6.029,0.051,-0.003,0.02,104.0,105.0,101.0,13.4,1505.2,326.3,-0.8,1.8,2468.712,13.28,0.051,93.4
2021-04-28T06:07:03,42.805,6.029,0.065,-0.023,0.013,103.0,105.0,101.0,13.4,1505.2,323.5,-0.8,1.8,2468.704,13.28,0.068,109.5
2021-04-28T06:10:03,42.805,6.029,0.053,-0.029,0.039,104.0,106.0,102.0,13.4,1505.2,324.9,-0.8,1.8,2468.686,13.28,0.06,118.7
2021-04-28T06:13:03,42.805,6.029,0.055,-0.017,0.033,104.0,105.0,101.0,13.4,1505.2,328.4,-0.8,1.8,2468.711,13.28,0.057,107.2
2021-04-28T06:16:03,42.805,6.029,0.047,-0.026,0.004,103.0,106.0,101.0,13.3,1505.2,329.0,-0.7,1.8,2468.708,13.28,0.053,118.9
2021-04-28T06:19:03,42.805,6.029,0.063,-0.028,0.039,103.0,106.0,101.0,13.4,1505.2,328.5,-0.8,1.8,2468.734,13.28,0.068,114.0
2021-04-28T06:22:03,42.805,6.029,0.045,0.0,0.032,103.0,106.0,101.0,13.4,1505.2,327.0,-0.7,1.9,2468.73,13.28,0.045,90.0
2021-04-28T06:25:03,42.805,6.029,0.039,-0.015,0.018,104.0,105.0,101.0,13.3,1505.2,325.5,-0.7,1.8,2468.7,13.28,0.041,111.0
2021-04-28T06:28:03,42.805,6.029,0.058,-0.028,0.037,103.0,105.0,103.0,13.4,1505.2,325.1,-0.7,1.8,2468.676,13.28,0.064,115.8
2021-04-28T06:31:03,42.805,6.029,0.068,-0.033,0.02,102.0,105.0,101.0,13.4,1505.2,326.1,-0.8,1.8,2468.704,13.28,0.075,115.9
2021-04-28T06:34:03,42.805,6.029,0.052,-0.017,0.025,103.0,105.0,102.0,13.3,1505.2,325.4,-0.7,1.8,2468.692,13.28,0.054,108.1
2021-04-28T06:37:03,42.805,6.029,0.056,-0.022,-0.024,103.0,106.0,102.0,13.4,1505.2,325.0,-0.7,1.8,2468.679,13.28,0.06,111.4
2021-04-28T06:40:03,42.805,6.029,0.027,-0.027,-0.012,104.0,105.0,102.0,13.4,1505.2,327.7,-0.7,1.8,2468.678,13.28,0.038,135.0
2021-04-28T06:43:03,42.805,6.029,0.054,-0.039,0.004,103.0,106.0,102.0,13.4,1505.2,324.4,-0.7,1.8,2468.727,13.28,0.066,125.8
2021-04-28T06:46:03,42.805,6.029,0.036,-0.006,0.036,104.0,105.0,101.0,13.4,1505.2,327.3,-0.7,1.8,2468.689,13.28,0.036,99.5
2021-04-28T06:49:03,42.805,6.029,0.062,-0.025,0.022,105.0,105.0,101.0,13.3,1505.2,325.7,-0.8,1.8,2468.749,13.28,0.066,112.0
2021-04-28T06:52:03,42.805,6.029,0.038,-0.014,0.004,102.0,106.0,101.0,13.4,1505.2,328.8,-0.7,1.8,2468.717,13.28,0.04,110.2
2021-04-28T06:55:03,42.805,6.029,0.048,-0.015,-0.004,103.0,104.0,102.0,13.3,1505.2,325.3,-0.7,1.8,2468.732,13.28,0.05,107.4
2021-04-28T06:58:03,42.805,6.029,0.047,0.0,0.035,103.0,106.0,102.0,13.4,1505.2,324.7,-0.7,1.8,2468.704,13.28,0.047,90.0
2021-04-28T07:04:03,42.805,6.029,0.05,-0.004,0.043,105.0,106.0,101.0,13.4,1505.2,325.4,-0.8,1.8,2468.742,13.28,0.05,94.6
2021-04-28T07:07:03,42.805,6.029,0.059,-0.019,0.014,105.0,105.0,101.0,13.3,1505.2,327.0,-0.8,1.9,2468.721,13.28,0.061,107.8
2021-04-28T07:10:03,42.805,6.029,0.045,-0.016,0.037,103.0,106.0,101.0,13.4,1505.2,328.7,-0.7,1.8,2468.765,13.28,0.047,109.6
2021-04-28T07:13:03,42.805,6.029,0.055,-0.011,0.018,103.0,104.0,101.0,13.4,1505.2,327.2,-0.7,1.8,2468.72,13.28,0.056,101.3
2021-04-28T07:16:03,42.805,6.029,0.041,-0.028,0.011,103.0,106.0,102.0,13.4,1505.2,328.1,-0.8,1.8,2468.707,13.28,0.049,124.3
2021-04-28T07:19:03,42.805,6.029,0.073,-0.024,0.037,103.0,105.0,101.0,13.4,1505.2,327.6,-0.7,1.8,2468.724,13.28,0.076,108.2
2021-04-28T07:22:03,42.805,6.029,0.043,-0.026,0.014,104.0,105.0,101.0,13.4,1505.2,326.7,-0.7,1.8,2468.647,13.28,0.05,121.2
2021-04-28T07:25:03,42.805,6.029,0.043,-0.023,0.011,103.0,104.0,102.0,13.3,1505.2,328.8,-0.7,1.8,2468.709,13.28,0.048,118.1
2021-04-28T07:28:03,42.805,6.029,0.032,-0.005,-0.003,103.0,105.0,102.0,13.4,1505.2,323.8,-0.8,1.8,2468.689,13.28,0.032,98.9
2021-04-28T07:31:03,42.805,6.029,0.046,-0.012,0.043,103.0,104.0,101.0,13.4,1505.2,327.0,-0.7,1.8,2468.728,13.28,0.047,104.6
2021-04-28T07:34:03,42.805,6.029,0.049,-0.02,0.03,102.0,104.0,102.0,13.4,1505.2,325.1,-0.8,1.9,2468.708,13.28,0.052,112.2
2021-04-28T07:37:03,42.805,6.029,0.032,-0.027,0.03,104.0,104.0,102.0,13.4,1505.2,325.2,-0.8,1.8,2468.689,13.28,0.041,130.2
2021-04-28T07:40:03,42.805,6.029,0.038,-0.007,0.026,103.0,105.0,101.0,13.4,1505.2,327.3,-0.8,1.8,2468.671,13.28,0.038,100.4
2021-04-28T07:43:03,42.805,6.029,0.036,-0.024,0.018,103.0,104.0,102.0,13.3,1505.2,328.6,-0.8,1.8,2468.655,13.28,0.043,123.7
2021-04-28T07:46:03,42.805,6.029,0.044,-0.012,0.03,103.0,106.0,101.0,13.4,1505.2,327.0,-0.7,1.8,2468.683,13.28,0.045,105.3
2021-04-28T07:49:03,42.805,6.029,0.055,-0.032,0.038,103.0,104.0,101.0,13.4,1505.2,326.7,-0.7,1.8,2468.686,13.28,0.063,120.2
2021-04-28T07:52:03,42.805,6.029,0.058,-0.019,0.035,104.0,105.0,101.0,13.4,1505.2,324.4,-0.8,1.8,2468.672,13.28,0.061,108.1
2021-04-28T07:55:03,42.805,6.029,0.062,-0.028,0.005,104.0,106.0,101.0,13.4,1505.2,326.3,-0.8,1.9,2468.638,13.28,0.068,114.3
2021-04-28T07:58:03,42.805,6.029,0.039,-0.011,0.065,101.0,106.0,102.0,13.3,1505.2,329.2,-0.7,1.8,2468.691,13.28,0.04,105.7
2021-04-28T08:04:03,42.805,6.029,0.062,-0.026,0.008,104.0,105.0,101.0,13.4,1505.2,326.4,-0.8,1.8,2468.696,13.28,0.067,112.7
2021-04-28T08:07:03,42.805,6.029,0.084,-0.031,0.043,102.0,105.0,101.0,13.4,1505.2,328.2,-0.8,1.9,2468.741,13.28,0.089,110.3
2021-04-28T08:10:03,42.805,6.029,0.041,-0.012,-0.007,104.0,105.0,101.0,13.4,1505.2,324.2,-0.8,1.8,2468.736,13.28,0.042,106.3
2021-04-28T08:13:03,42.805,6.029,0.04,-0.012,0.024,103.0,106.0,101.0,13.4,1505.2,326.8,-0.8,1.8,2468.754,13.28,0.041,106.7
2021-04-28T08:16:03,42.805,6.029,0.05,-0.019,0.008,104.0,106.0,101.0,13.3,1505.2,325.2,-0.8,1.8,2468.727,13.28,0.053,110.8
2021-04-28T08:19:03,42.805,6.029,0.043,-0.016,0.016,102.0,104.0,102.0,13.4,1505.2,327.0,-0.7,1.8,2468.701,13.28,0.045,110.4
2021-04-28T08:22:03,42.805,6.029,0.06,-0.031,0.025,102.0,106.0,101.0,13.4,1505.2,325.2,-0.7,1.8,2468.72,13.28,0.067,117.3
2021-04-28T08:25:03,42.805,6.029,0.046,-0.021,-0.016,103.0,104.0,102.0,13.4,1505.2,328.8,-0.7,1.8,2468.709,13.28,0.05,114.5
2021-04-28T08:28:03,42.805,6.029,0.047,-0.019,0.019,104.0,105.0,102.0,13.3,1505.2,323.9,-0.8,1.8,2468.715,13.28,0.05,112.0
2021-04-28T08:31:03,42.805,6.029,0.07,-0.024,0.002,103.0,103.0,101.0,13.4,1505.2,327.4,-0.8,1.8,2468.676,13.28,0.073,108.9
2021-04-28T08:34:03,42.805,6.029,0.053,-0.036,0.038,104.0,105.0,101.0,13.4,1505.2,327.8,-0.7,1.8,2468.648,13.28,0.064,124.2
2021-04-28T08:37:03,42.805,6.029,0.04,-0.027,-0.01,102.0,104.0,101.0,13.3,1505.2,326.6,-0.7,1.8,2468.66,13.28,0.048,124.0
2021-04-28T08:40:03,42.805,6.029,0.064,-0.032,-0.001,102.0,106.0,102.0,13.4,1505.2,326.8,-0.8,1.8,2468.627,13.28,0.071,116.6
2021-04-28T08:43:03,42.805,6.029,0.046,-0.041,0.021,103.0,105.0,101.0,13.4,1505.2,329.4,-0.7,1.8,2468.603,13.28,0.061,131.7
2021-04-28T08:46:03,42.805,6.029,0.03,-0.042,0.003,103.0,103.0,101.0,13.4,1505.2,324.7,-0.7,1.8,2468.572,13.28,0.051,144.5
2021-04-28T08:49:03,42.805,6.029,0.024,-0.024,0.015,104.0,104.0,102.0,13.4,1505.2,326.4,-0.7,1.8,2468.553,13.28,0.033,135.0
2021-04-28T08:52:03,42.805,6.029,0.05,-0.027,0.001,104.0,103.0,100.0,13.4,1505.2,327.8,-0.8,1.8,2468.506,13.28,0.056,118.4
2021-04-28T08:55:03,42.805,6.029,0.051,-0.017,-0.008,104.0,104.0,102.0,13.3,1505.2,327.4,-0.7,1.8,2468.524,13.28,0.053,108.4
2021-04-28T08:58:03,42.805,6.029,0.06,-0.026,0.015,103.0,102.0,102.0,13.3,1505.2,326.2,-0.8,1.8,2468.475,13.28,0.065,113.4
2021-04-28T09:04:03,42.805,6.029,0.06,-0.016,0.033,103.0,104.0,101.0,13.4,1505.2,324.9,-0.8,1.8,2468.465,13.28,0.062,104.9
2021-04-28T09:07:03,42.805,6.029,0.061,-0.024,-0.024,103.0,102.0,101.0,13.4,1505.2,325.0,-0.7,1.8,2468.441,13.28,0.065,111.5
2021-04-28T09:10:03,42.805,6.029,0.06,-0.03,0.023,105.0,104.0,100.0,13.4,1505.2,327.3,-0.8,1.8,2468.431,13.28,0.067,116.6
2021-04-28T09:13:03,42.805,6.029,0.076,-0.008,0.029,103.0,103.0,102.0,13.4,1505.2,325.7,-0.8,1.8,2468.398,13.28,0.076,96.0
2021-04-28T09:16:03,42.805,6.029,0.066,-0.042,0.001,103.0,104.0,102.0,13.3,1505.2,327.9,-0.7,1.9,2468.416,13.28,0.078,122.5
2021-04-28T09:19:03,42.805,6.029,0.053,-0.026,0.052,104.0,103.0,102.0,13.4,1505.2,324.1,-0.8,1.8,2468.347,13.28,0.059,116.1
2021-04-28T09:22:03,42.805,6.029,0.044,-0.034,0.004,103.0,103.0,102.0,13.4,1505.2,324.6,-0.8,1.8,2468.348,13.28,0.055,127.7
2021-04-28T09:25:03,42.805,6.029,0.046,-0.015,0.028,103.0,106.0,104.0,13.4,1505.2,328.3,-0.7,1.8,2468.372,13.28,0.048,108.1
2021-04-28T09:28:03,42.805,6.029,0.045,-0.019,0.019,104.0,105.0,102.0,13.4,1505.2,325.4,-0.8,1.8,2468.354,13.28,0.048,112.9
2021-04-28T09:31:03,42.805,6.029,0.066,-0.033,0.036,102.0,104.0,102.0,13.4,1505.2,327.2,-0.7,1.8,2468.379,13.28,0.073,116.6
2021-04-28T09:34:03,42.805,6.029,0.045,-0.02,-0.006,103.0,102.0,102.0,13.4,1505.2,326.8,-0.7,1.8,2468.329,13.28,0.049,114.0
2021-04-28T09:37:03,42.805,6.029,0.061,-0.029,0.019,103.0,103.0,101.0,13.4,1505.2,328.8,-0.7,1.8,2468.342,13.28,0.067,115.4
2021-04-28T09:40:03,42.805,6.029,0.051,-0.038,0.019,103.0,104.0,102.0,13.3,1505.2,329.4,-0.8,1.8,2468.37,13.28,0.063,126.7
2021-04-28T09:43:03,42.805,6.029,0.065,-0.02,0.02,104.0,105.0,101.0,13.3,1505.2,328.1,-0.7,1.8,2468.383,13.28,0.068,107.1
2021-04-28T09:46:03,42.805,6.029,0.039,-0.04,0.021,103.0,103.0,103.0,13.4,1505.2,326.4,-0.7,1.9,2468.284,13.28,0.055,135.7
2021-04-28T09:49:03,42.805,6.029,0.049,-0.041,-0.004,103.0,103.0,101.0,13.4,1505.2,327.4,-0.8,1.8,2468.329,13.28,0.063,129.9
2021-04-28T09:52:03,42.805,6.029,0.053,-0.015,0.015,103.0,102.0,102.0,13.3,1505.2,328.1,-0.8,1.8,2468.322,13.28,0.055,105.8
2021-04-28T09:55:03,42.805,6.029,0.055,-0.048,0.012,103.0,103.0,103.0,13.4,1505.2,325.6,-0.8,1.9,2468.321,13.28,0.072,131.1
2021-04-28T09:58:03,42.805,6.029,0.054,-0.052,0.018,104.0,105.0,102.0,13.4,1505.2,325.3,-0.8,1.8,2468.385,13.28,0.074,133.9